This demonstration page uses our WeatherBlox Daily Observations layout. Learn more.

Hourly Observations for September 19, 2018

Temp ( °F °C ) Dew Point ( °F °C ) Humidity (%) Winds ( mph kmh ) Pressure ( in mb ) Visibility ( mi km ) Precip ( " mm )
12:15 am 00:15 Clear 67 19.7 67 19.5 99 99 E 8 13 29.8 1009 10 16.09344 0 0
12:35 am 00:35 Clear 67 19.6 67 19.5 99 99 E 10 17 29.8 1009 10 16.09344 0 0
12:55 am 00:55 Clear 67 19.6 67 19.4 99 99 E 10 17 29.77 1008 10 16.09344 0 0
1:15 am 01:15 Clear 67 19.2 66 19.1 99 99 ESE 7 11 29.8 1009 10 16.09344 0 0
1:35 am 01:35 Clear 66 19 66 18.9 99 99 SE 5 7 29.8 1009 10 16.09344 0 0
1:55 am 01:55 Clear 66 19 66 19 100 100 ESE 5 7 29.8 1009 10 16.09344 0 0
2:15 am 02:15 Clear 66 19 66 19 100 100 SE 6 9 29.77 1008 10 16.09344 0 0
2:35 am 02:35 Clear 66 19 66 18.8 99 99 SE 7 11 29.77 1008 10 16.09344 0 0
2:55 am 02:55 Clear 66 19.1 66 18.8 98 98 SE 7 11 29.77 1008 10 16.09344 0 0
3:15 am 03:15 Clear 66 18.8 65 18.5 98 98 SE 6 9 29.77 1008 10 16.09344 0 0
3:35 am 03:35 Clear 66 18.8 65 18.5 98 98 SE 7 11 29.77 1008 10 16.09344 0 0
3:55 am 03:55 Clear 66 18.8 65 18.4 98 98 SSE 6 9 29.77 1008 10 16.09344 0 0
4:15 am 04:15 Clear 66 19.1 65 18.6 97 97 SSE 6 9 29.74 1007 10 16.09344 0 0
4:35 am 04:35 Clear 67 19.3 65 18.6 96 96 SSE 7 11 29.74 1007 10 16.09344 0 0
4:55 am 04:55 Clear 67 19.6 66 18.9 96 96 SSE 6 9 29.74 1007 10 16.09344 0 0
5:15 am 05:15 Clear 67 19.6 66 18.7 95 95 Calm 29.74 1007 10 16.09344 0 0
5:35 am 05:35 Clear 67 19.6 66 18.7 95 95 S 6 9 29.74 1007 10 16.09344 0 0
5:55 am 05:55 Clear 67 19.5 65 18.6 95 95 SSE 6 9 29.74 1007 10 16.09344 0 0
6:15 am 06:15 Clear 66 19 65 18.5 97 97 SSE 6 9 29.74 1007 10 16.09344 0 0
6:35 am 06:35 Clear 66 19 65 18.5 97 97 SSE 5 7 29.74 1007 10 16.09344 0 0
6:55 am 06:55 Clear 66 18.7 65 18.4 98 98 SSE 5 7 29.74 1007 10 16.09344 0 0
7:15 am 07:15 Clear 65 18.5 65 18.2 98 98 SSE 5 7 29.74 1007 10 16.09344 0 0
7:35 am 07:35 Sunny 65 18.6 65 18.4 99 99 SSE 6 9 29.74 1007 10 16.09344 0 0
7:55 am 07:55 Sunny 66 18.7 65 18.5 99 99 SSE 5 7 29.74 1007 10 16.09344 0 0
8:15 am 08:15 Sunny 67 19.4 66 19 98 98 SSE 6 9 29.74 1007 10 16.09344 0 0
8:35 am 08:35 Sunny 68 20.2 67 19.5 96 96 SSE 7 11 29.74 1007 10 16.09344 0 0
8:55 am 08:55 Sunny 70 21.3 68 19.8 91 91 S 9 15 29.71 1006 10 16.09344 0 0
9:15 am 09:15 Sunny 73 22.6 68 20.2 86 86 S 10 17 29.71 1006 10 16.09344 0 0
9:35 am 09:35 Sunny 74 23.6 69 20.4 82 82 S 12 19 29.71 1006 10 16.09344 0 0
9:55 am 09:55 Sunny 76 24.6 69 20.3 77 77 S 12 19 29.71 1006 10 16.09344 0 0
10:15 am 10:15 Sunny 78 25.5 68 20.1 72 72 SSW 10 17 29.68 1005 10 16.09344 0 0
10:35 am 10:35 Sunny 80 26.4 68 20.1 68 68 SSW 12 19 29.68 1005 10 16.09344 0 0
10:55 am 10:55 Sunny 81 27.2 68 20.2 66 66 S 10 17 29.71 1006 10 16.09344 0 0
11:15 am 11:15 Sunny 82 27.5 68 20.1 64 64 SSE 14 22 29.68 1005 10 16.09344 0 0
11:35 am 11:35 Sunny 83 28.1 69 20.3 63 63 S 12 19 29.68 1005 10 16.09344 0 0
11:55 am 11:55 Sunny 84 29 69 20.3 59 59 S 14 22 29.65 1004 10 16.09344 0 0
12:15 pm 12:15 Sunny 85 29.5 68 20 57 57 S 13 20 29.65 1004 10 16.09344 0 0
12:35 pm 12:35 Sunny 86 30 69 20.3 56 56 SSE 14 22 29.65 1004 10 16.09344 0 0
12:55 pm 12:55 Sunny 88 30.9 68 20.2 53 53 S 12 19 29.65 1004 10 16.09344 0 0
1:15 pm 13:15 Sunny 89 31.5 69 20.5 52 52 S 13 20 29.65 1004 10 16.09344 0 0
1:35 pm 13:35 Partly Cloudy 89 31.5 68 19.9 50 50 S 17 28 29.62 1003 10 16.09344 0 0
1:55 pm 13:55 Partly Cloudy 90 32.3 68 19.9 48 48 S 16 26 29.59 1002 10 16.09344 0 0
2:15 pm 14:15 Partly Cloudy 90 32.3 68 19.9 48 48 S 17 28 29.59 1002 10 16.09344 0 0
2:35 pm 14:35 Partly Cloudy 90 32.2 68 19.8 48 48 S 17 28 29.62 1003 10 16.09344 0 0
2:55 pm 14:55 Partly Cloudy 91 32.9 67 19.6 45 45 S 16 26 29.59 1002 10 16.09344 0 0
3:15 pm 15:15 Partly Cloudy 91 32.6 66 19.1 45 45 S 18 30 29.59 1002 10 16.09344 0 0
3:35 pm 15:35 Mostly Cloudy 92 33.2 66 19.1 43 43 S 16 26 29.59 1002 10 16.09344 0 0
3:55 pm 15:55 Partly Cloudy 92 33.1 66 18.8 43 43 S 14 22 29.59 1002 10 16.09344 0 0
4:15 pm 16:15 Partly Cloudy 92 33.1 66 18.7 42 42 S 15 24 29.59 1002 10 16.09344 0 0
4:35 pm 16:35 Partly Cloudy 91 32.6 66 18.7 44 44 SSE 18 30 29.59 1002 10 16.09344 0 0
4:55 pm 16:55 Partly Cloudy 91 32.7 66 18.7 43 43 SSE 22 35 29.56 1001 10 16.09344 0 0
5:15 pm 17:15 Partly Cloudy 91 32.6 66 18.7 44 44 S 16 26 29.56 1001 10 16.09344 0 0
5:35 pm 17:35 Sunny 90 32.1 65 18.6 45 45 SSE 17 28 29.56 1001 10 16.09344 0 0
5:55 pm 17:55 Sunny 90 32 65 18.1 44 44 S 21 33 29.56 1001 10 16.09344 0 0
6:15 pm 18:15 Sunny 88 31.2 65 18.4 46 46 SSE 15 24 29.59 1002 10 16.09344 0 0
6:35 pm 18:35 Sunny 88 31.1 65 18.3 46 46 SSE 14 22 29.59 1002 10 16.09344 0 0
6:55 pm 18:55 Sunny 87 30.7 64 17.5 45 45 SSE 16 26 29.59 1002 10 16.09344 0 0
7:15 pm 19:15 Sunny 85 29.4 63 17 47 47 SSE 12 19 29.59 1002 10 16.09344 0 0
7:35 pm 19:35 Sunny 83 28.4 62 16.6 49 49 SSE 12 19 29.59 1002 10 16.09344 0 0
7:55 pm 19:55 Clear 82 27.6 62 16.5 51 51 SSE 12 19 29.62 1003 10 16.09344 0 0
8:15 pm 20:15 Clear 80 26.7 62 16.7 54 54 SE 12 19 29.62 1003 10 16.09344 0 0
8:35 pm 20:35 Clear 79 26.2 63 17 57 57 SE 9 15 29.65 1004 10 16.09344 0 0
8:55 pm 20:55 Clear 78 25.7 63 17.2 59 59 SE 9 15 29.65 1004 10 16.09344 0 0
9:15 pm 21:15 Clear 77 25 63 17.4 63 63 SE 8 13 29.65 1004 10 16.09344 0 0
9:35 pm 21:35 Clear 77 25 64 17.5 63 63 SE 9 15 29.65 1004 10 16.09344 0 0
9:55 pm 21:55 Clear 76 24.6 64 17.6 65 65 SSE 10 17 29.65 1004 10 16.09344 0 0
10:15 pm 22:15 Clear 77 24.9 64 17.8 65 65 SSE 13 20 29.65 1004 10 16.09344 0 0
10:35 pm 22:35 Clear 76 24.6 64 18 67 67 SSE 10 17 29.65 1004 10 16.09344 0 0
10:55 pm 22:55 Clear 76 24.5 64 18 67 67 SSE 13 20 29.68 1005 10 16.09344 0 0
11:15 pm 23:15 Clear 77 24.9 64 18 66 66 SSE 15 24 29.65 1004 10 16.09344 0 0
11:35 pm 23:35 Clear 77 25 64 18 65 65 SSE 15 24 29.65 1004 10 16.09344 0 0
11:55 pm 23:55 Clear 77 25 64 18 65 65 SSE 16 26 29.65 1004 10 16.09344 0 0

Powered by AerisWeather